Airfield :
LOGIN :

Register | Disclaimer

   EN    FR    IT 

 










Legend :    VFR   Marginal VFR   IFR   Intensive IFR   Very Intensive IFR
Visi :
Ceiling :
>= 8 km
>= 3000ft
5 to 8 km
1000 to 3000 ft
1500m to 5 km
500 to 1000 ft
800 to 1500m
200 to 500 ft
< 800m
< 200 ft
Symbols :   Thunderstorms  Fog  Heavy snow  Heavy precipitations  Wind > 20 kt
SIGMETs :     Misc.  Thunderstorms  Icing  Turbulence  Mountain Waves  Volcanic Ashes







- Airport Elevation : 915 ft
- IATA code : LUG


LSZA - Lugano

CURRENT METAR :
  • 152350Z AUTO VRB03KT 9000 NCD 02/M00 Q1033

EXPIRED METARs :
  • 152320Z AUTO VRB02KT 8000 NCD 03/01 Q1033
  • 152250Z AUTO VRB01KT 9000 NCD 02/M00 Q1033
  • 152220Z AUTO VRB01KT 9000 NCD 03/00 Q1033
  • 152150Z AUTO VRB02KT CAVOK 04/01 Q1033
  • 152120Z AUTO 36004KT CAVOK 03/M00 Q1033

Expired Forecast.
ATIS : +41 22 417 40 88
No reported NOTAMs for that airfield.



MET'MAP, your aeronautical weather chart ! - Copyright ORBIFLY December 2007 - Disclaimer

ORBIFLY MET'MAP TEAM :

Programming & Development : Alexandra Zaïnal
Concept & Development : Baudouin d'Aumeries
Co-Development & Prog : Marc-Olivier Méhu
Technical & hardware support : Manuel Goepfert

Contact : metmap@orbifly.com




SOURCES & CREDITS :

   NOAA